Location: Clyde
(45.1830°S, 169.3170°E)
Time: 09:42:35
(UTC+12:00)

ATLAS 3B R/B - Pass Details

Date: 14 May 2021
Orbit: 1006 x 1189 km, 63.8° (Epoch: 13 June)

Event Time Altitude Azimuth Distance (km) Brightness Sun altitude
Rises 18:28:25 0° 338° (NNW) 4,076 6.3 -11.3°
Reaches altitude 10° 18:31:11 10° 341° (NNW) 3,117 5.6 -11.8°
Maximum altitude 18:38:34 63° 59° (ENE) 1,307 3.0 -13.1°
Enters shadow 18:45:29 12° 137° (SE) 2,952 4.5 -14.2°
